• In Latvia
  • List of Countries
  • For 7 days
  • Water Temperature
  • Satellite Maps
  • Weather Map
  • Weather Widgets
  • user-avatar
    Login

    Hourly Weather Punakha

    Today, 17 January, Wednesday

    Time Temperature Precipitation Wind Pressure Humidity
    00:00 +7°C° 0 mm 2 mps 581 mmHg 56%
    01:00 +7°C° 0 mm 2 mps 581 mmHg 51%
    02:00 +7°C° 0 mm 2 mps 580 mmHg 46%
    03:00 +6°C° 0 mm 2 mps 580 mmHg 41%
    04:00 +6°C° 0 mm 2 mps 580 mmHg 38%
    05:00 +6°C° 0 mm 2 mps 580 mmHg 36%
    06:00 +5°C° 0 mm 2 mps 580 mmHg 55%
    07:00 +9°C° 0 mm 1 mps 581 mmHg 47%
    08:00 +11°C° 0 mm 1 mps 582 mmHg 40%
    09:00 +14°C° 0 mm 1 mps 584 mmHg 32%
    10:00 +15°C° 0 mm 1 mps 584 mmHg 34%
    11:00 +16°C° 0 mm 2 mps 584 mmHg 35%
    12:00 +18°C° 0 mm 3 mps 584 mmHg 37%
    13:00 +17°C° 0 mm 3 mps 584 mmHg 42%
    14:00 +16°C° 0 mm 3 mps 583 mmHg 48%
    15:00 +16°C° 0 mm 2 mps 582 mmHg 53%
    16:00 +14°C° 0 mm 2 mps 582 mmHg 64%
    17:00 +12°C° 0 mm 2 mps 581 mmHg 75%
    18:00 +10°C° 0 mm 1 mps 580 mmHg 86%
    19:00 +9°C° 0 mm 1 mps 580 mmHg 82%
    20:00 +9°C° 0 mm 1 mps 581 mmHg 77%
    21:00 +9°C° 0 mm 1 mps 581 mmHg 72%
    22:00 +9°C° 0 mm 1 mps 581 mmHg 68%
    23:00 +9°C° 0 mm 1 mps 581 mmHg 65%

    Tomorrow, 18 January, Thursday

    Time Temperature Precipitation Wind Pressure Humidity
    00:00 +9°C° 0 mm 1 mps 581 mmHg 61%
    01:00 +8°C° 0 mm 1 mps 581 mmHg 58%
    02:00 +8°C° 0 mm 1 mps 580 mmHg 55%
    03:00 +8°C° 0 mm 1 mps 580 mmHg 52%
    04:00 +8°C° 0 mm 1 mps 580 mmHg 50%
    05:00 +8°C° 0 mm 1 mps 580 mmHg 47%
    06:00 +8°C° 0 mm 1 mps 580 mmHg 45%
    07:00 +10°C° 0 mm 1 mps 581 mmHg 41%
    08:00 +13°C° 0 mm 1 mps 583 mmHg 37%
    09:00 +15°C° 0 mm 1 mps 584 mmHg 32%
    10:00 +16°C° 0 mm 1 mps 585 mmHg 32%
    11:00 +18°C° 0 mm 2 mps 585 mmHg 33%
    12:00 +19°C° 0 mm 2 mps 585 mmHg 33%
    13:00 +19°C° 0 mm 2 mps 584 mmHg 37%
    14:00 +18°C° 0 mm 2 mps 584 mmHg 41%
    15:00 +18°C° 0 mm 3 mps 583 mmHg 45%
    16:00 +16°C° 0 mm 2 mps 583 mmHg 59%
    17:00 +13°C° 0 mm 2 mps 582 mmHg 73%
    18:00 +11°C° 0 mm 1 mps 581 mmHg 87%
    19:00 +10°C° 0 mm 1 mps 581 mmHg 83%
    20:00 +10°C° 0 mm 1 mps 582 mmHg 80%
    21:00 +10°C° 0 mm 1 mps 582 mmHg 76%
    22:00 +10°C° 0 mm 1 mps 582 mmHg 73%
    23:00 +9°C° 0 mm 1 mps 582 mmHg 70%

    Day after tomorrow, 19 January, Friday

    Time Temperature Precipitation Wind Pressure Humidity
    00:00 +9°C° 0 mm 1 mps 582 mmHg 66%
    01:00 +9°C° 0 mm 1 mps 582 mmHg 64%
    02:00 +9°C° 0 mm 1 mps 581 mmHg 61%
    03:00 +9°C° 0 mm 1 mps 581 mmHg 59%
    04:00 +9°C° 0 mm 1 mps 581 mmHg 56%
    05:00 +8°C° 0 mm 1 mps 581 mmHg 54%
    06:00 +8°C° 0 mm 1 mps 581 mmHg 51%
    07:00 +11°C° 0 mm 1 mps 582 mmHg 46%
    08:00 +13°C° 0 mm 1 mps 584 mmHg 41%
    09:00 +15°C° 0 mm 1 mps 585 mmHg 35%
    10:00 +18°C° 0 mm 1 mps 586 mmHg 35%
    11:00 +18°C° 0 mm 2 mps 586 mmHg 34%
    12:00 +19°C° 0 mm 2 mps 586 mmHg 33%
    13:00 +19°C° 0 mm 2 mps 585 mmHg 38%
    14:00 +18°C° 0 mm 2 mps 584 mmHg 42%
    15:00 +18°C° 0 mm 3 mps 584 mmHg 46%
    16:00 +16°C° 0 mm 2 mps 583 mmHg 60%
    17:00 +13°C° 0 mm 2 mps 582 mmHg 74%
    18:00 +11°C° 0 mm 1 mps 581 mmHg 88%
    19:00 +11°C° 0 mm 1 mps 582 mmHg 85%
    20:00 +10°C° 0 mm 1 mps 582 mmHg 81%
    21:00 +10°C° 0 mm 1 mps 582 mmHg 78%
    22:00 +10°C° 0 mm 1 mps 582 mmHg 75%
    23:00 +10°C° 0 mm 1 mps 582 mmHg 73%

    20 January, Saturday

    Time Temperature Precipitation Wind Pressure Humidity
    00:00 +9°C° 0 mm 1 mps 582 mmHg 70%
    01:00 +9°C° 0 mm 1 mps 581 mmHg 69%
    02:00 +9°C° 0 mm 1 mps 581 mmHg 67%
    03:00 +9°C° 0 mm 1 mps 580 mmHg 65%
    04:00 +8°C° 0 mm 1 mps 580 mmHg 63%
    05:00 +8°C° 0 mm 1 mps 580 mmHg 62%
    06:00 +8°C° 0 mm 1 mps 580 mmHg 60%
    07:00 +10°C° 0 mm 1 mps 581 mmHg 54%
    08:00 +12°C° 0 mm 1 mps 582 mmHg 47%
    09:00 +14°C° 0 mm 1 mps 584 mmHg 41%
    10:00 +15°C° 0 mm 2 mps 584 mmHg 39%
    11:00 +17°C° 0 mm 2 mps 583 mmHg 37%
    12:00 +18°C° 0 mm 3 mps 583 mmHg 35%
    13:00 +18°C° 0 mm 3 mps 583 mmHg 37%
    14:00 +17°C° 0 mm 3 mps 582 mmHg 40%
    15:00 +17°C° 0 mm 3 mps 581 mmHg 42%
    16:00 +15°C° 0 mm 2 mps 580 mmHg 56%
    17:00 +12°C° 0 mm 2 mps 580 mmHg 70%
    18:00 +10°C° 0 mm 1 mps 579 mmHg 83%
    19:00 +9°C° 0 mm 1 mps 579 mmHg 79%
    20:00 +9°C° 0 mm 1 mps 580 mmHg 75%
    21:00 +9°C° 0 mm 1 mps 580 mmHg 70%
    22:00 +8°C° 0 mm 2 mps 580 mmHg 65%
    23:00 +8°C° 0 mm 2 mps 580 mmHg 60%

    21 January, Sunday

    Time Temperature Precipitation Wind Pressure Humidity
    00:00 +8°C° 0 mm 2 mps 580 mmHg 55%
    01:00 +7°C° 0 mm 2 mps 580 mmHg 51%
    02:00 +7°C° 0 mm 2 mps 580 mmHg 48%
    03:00 +7°C° 0 mm 2 mps 580 mmHg 45%
    04:00 +7°C° 0 mm 3 mps 580 mmHg 41%
    05:00 +7°C° 0 mm 3 mps 580 mmHg 38%
    06:00 +5°C° 0 mm 3 mps 581 mmHg 35%
    07:00 +9°C° 0 mm 3 mps 582 mmHg 31%
    08:00 +12°C° 0 mm 2 mps 584 mmHg 27%
    09:00 +14°C° 0 mm 2 mps 585 mmHg 23%
    10:00 +16°C° 0 mm 2 mps 585 mmHg 23%
    11:00 +17°C° 0 mm 2 mps 585 mmHg 23%
    12:00 +18°C° 0 mm 2 mps 586 mmHg 23%
    13:00 +18°C° 0 mm 2 mps 585 mmHg 26%
    14:00 +18°C° 0 mm 2 mps 584 mmHg 30%
    15:00 +17°C° 0 mm 2 mps 583 mmHg 34%
    16:00 +15°C° 0 mm 2 mps 582 mmHg 49%
    17:00 +12°C° 0 mm 1 mps 582 mmHg 64%
    18:00 +10°C° 0 mm 1 mps 581 mmHg 79%
    19:00 +10°C° 0 mm 1 mps 581 mmHg 75%
    20:00 +10°C° 0 mm 1 mps 581 mmHg 70%
    21:00 +9°C° 0 mm 1 mps 582 mmHg 66%
    22:00 +9°C° 0 mm 1 mps 582 mmHg 62%
    23:00 +8°C° 0 mm 2 mps 581 mmHg 58%

    22 January, Monday

    Time Temperature Precipitation Wind Pressure Humidity
    00:00 +8°C° 0 mm 2 mps 581 mmHg 53%
    01:00 +8°C° 0 mm 2 mps 581 mmHg 49%
    02:00 +8°C° 0 mm 2 mps 581 mmHg 45%
    03:00 +8°C° 0 mm 2 mps 580 mmHg 41%
    04:00 +8°C° 0 mm 2 mps 580 mmHg 38%
    05:00 +8°C° 0 mm 2 mps 580 mmHg 34%
    06:00 +8°C° 0 mm 2 mps 580 mmHg 31%
    07:00 +10°C° 0 mm 2 mps 582 mmHg 28%
    08:00 +13°C° 0 mm 1 mps 583 mmHg 25%
    09:00 +16°C° 0 mm 1 mps 585 mmHg 23%
    10:00 +18°C° 0 mm 1 mps 585 mmHg 25%
    11:00 +18°C° 0 mm 2 mps 585 mmHg 26%
    12:00 +20°C° 0 mm 2 mps 585 mmHg 28%
    13:00 +19°C° 0 mm 2 mps 584 mmHg 33%
    14:00 +19°C° 0 mm 3 mps 583 mmHg 38%
    15:00 +19°C° 0 mm 3 mps 583 mmHg 42%
    16:00 +16°C° 0 mm 2 mps 582 mmHg 55%
    17:00 +14°C° 0 mm 2 mps 581 mmHg 68%
    18:00 +11°C° 0 mm 1 mps 580 mmHg 81%
    19:00 +11°C° 0 mm 1 mps 581 mmHg 77%
    20:00 +11°C° 0 mm 1 mps 581 mmHg 74%
    21:00 +11°C° 0 mm 1 mps 581 mmHg 70%
    22:00 +10°C° 0 mm 1 mps 581 mmHg 69%
    23:00 +10°C° 0 mm 1 mps 581 mmHg 67%
    Show more